Theta_e
321 321 317 316 317 316 317 315 310 303 305 311 311 318 312 312 312 310 312 312 312 312 311 311 311 311 311 312 313 314 314 314 315 316 317 318 319 321
317 312 313 315 314 314 313 313 311 308 303 310 312 309 308 307 308 307 308 308 310 310 309 308 307 307 308 308 308 308 309 310 310 311 311 312 313 314
313 309 308 310 309 311 312 311 309 308 303 308 307 306 306 306 307 307 308 306 307 308 308 306 306 306 306 305 305 305 305 305 306 307 308 308 309 310
310 308 307 310 309 311 310 309 307 308 305 302 304 304 304 305 305 306 307 307 306 307 306 306 305 305 305 305 304 303 303 303 303 304 304 305 306 307
311 310 309 309 310 310 309 307 306 305 304 302 301 303 304 304 304 306 306 305 307 305 305 305 305 304 306 304 304 303 302 301 301 302 302 302 303 304
309 311 309 308 307 306 302 301 302 304 304 300 301 302 303 305 305 303 302 305 304 306 305 305 305 304 303 303 303 304 302 301 301 301 301 301 301 301
311 311 309 306 305 305 301 301 302 301 301 300 301 303 302 301 301 302 301 303 304 305 304 306 307 306 305 303 304 303 302 302 301 301 301 301 300 300
309 304 303 302 302 303 303 302 303 303 301 301 301 300 301 301 302 301 302 300 298 306 303 302 304 303 305 305 302 302 302 301 301 301 301 301 301 300
301 300 301 302 302 303 302 301 302 301 302 304 301 302 301 302 303 302 302 300 300 302 302 300 302 300 304 304 302 302 301 301 301 301 301 301 299 299
301 301 302 302 302 302 304 303 303 304 306 305 306 306 305 306 305 303 303 303 304 304 302 295 300 299 302 304 301 301 301 300 300 300 299 298 297 298
302 302 301 300 299 297 301 303 304 305 304 302 302 300 298 298 302 305 301 299 297 298 301 295 297 297 300 301 301 301 300 300 299 298 298 298 297 299
305 305 300 298 294 294 299 300 300 302 303 303 304 304 303 304 302 304 301 298 296 297 301 295 296 296 295 300 300 300 300 299 298 296 296 297 296 303
301 301 300 294 294 294 295 302 301 301 302 301 301 301 302 302 303 305 304 300 296 297 300 298 295 296 295 295 298 299 298 298 297 298 296 296 295 297
300 301 300 293 294 294 299 294 294 298 302 299 300 299 299 300 301 304 304 304 303 301 302 298 295 294 294 294 294 298 298 297 297 299 297 297 295 296
301 297 295 294 295 298 295 295 298 300 300 299 298 299 300 301 303 304 304 304 301 301 299 298 296 295 296 293 293 294 294 295 297 295 295 294 295 296
300 301 298 297 296 298 300 300 302 301 300 299 299 300 302 301 301 300 297 299 298 296 297 298 297 295 293 294 294 293 294 292 294 294 294 294 295 295
300 301 299 298 298 298 299 299 299 299 297 298 298 299 298 298 297 298 298 297 293 293 292 294 297 296 296 293 291 293 292 292 293 293 293 291 293 294
299 298 297 297 296 297 297 297 298 296 297 297 298 298 296 296 295 296 297 295 293 293 292 292 293 294 294 294 295 290 292 293 293 293 292 290 290 293
296 296 295 295 295 296 297 297 297 298 300 297 296 296 296 296 295 294 294 294 293 293 292 292 291 291 291 289 292 294 291 293 293 292 292 291 290 291
295 294 294 294 294 294 294 294 296 296 297 297 296 295 296 294 294 293 293 293 293 293 292 291 291 290 288 287 287 290 293 294 293 291 291 292 292 293
294 294 294 294 294 295 294 295 295 295 295 297 297 295 295 294 293 293 293 291 290 292 290 289 291 287 294 293 289 289 292 294 295 293 293 291 289 289
295 295 295 295 295 295 294 294 295 295 295 296 296 294 293 294 293 293 293 292 292 291 290 291 292 292 291 289 287 287 290 292 294 295 295 294 291 286
295 295 295 295 294 294 294 294 294 295 295 296 295 293 293 293 294 293 294 293 293 291 291 290 290 291 289 289 288 289 290 290 291 290 292 295 295 295
Wind_Speed
7 5 5 5 7 7 6 8 9 13 13 11 8 3 3 5 7 4 5 8 9 6 10 12 13 14 15 16 17 17 16 16 16 16 17 17 18 18
4 1 4 6 9 9 9 8 9 9 10 2 5 2 3 3 4 4 4 6 9 9 10 10 10 11 13 14 15 15 15 15 14 14 14 14 14 14
2 4 6 5 5 7 9 9 9 8 9 4 0 1 3 4 3 4 3 3 3 8 8 8 8 8 9 10 12 13 13 12 12 11 11 11 11 10
4 4 6 7 7 11 8 9 8 6 4 7 1 2 2 5 4 4 3 3 3 5 6 5 5 6 5 6 9 10 11 11 9 10 9 9 8 8
7 9 10 9 12 8 7 7 6 5 4 3 2 1 1 3 4 4 3 3 2 3 4 4 3 4 6 7 7 7 9 9 8 8 8 8 7 7
7 9 8 8 7 7 5 5 4 5 3 2 2 2 2 2 4 6 5 4 5 4 6 4 5 3 3 5 7 8 8 7 6 7 6 6 5 5
9 8 4 8 12 9 4 5 5 3 2 3 2 1 3 4 7 5 5 6 4 4 8 4 2 1 1 1 4 7 9 7 7 6 6 5 4 4
6 9 6 10 10 9 5 3 5 5 3 4 3 6 5 5 5 5 5 4 6 2 9 4 3 3 2 2 5 7 9 7 7 7 7 6 6 5
9 6 6 5 6 5 4 3 0 2 6 5 4 5 6 7 7 8 6 6 6 4 9 5 1 4 2 1 4 7 7 7 7 8 7 7 9 9
7 5 4 4 3 6 6 5 4 4 2 3 3 4 4 6 7 5 6 7 0 1 8 4 6 5 3 1 4 8 7 7 6 8 9 9 10 9
5 4 3 3 8 8 8 8 8 5 4 5 4 4 5 5 8 7 5 6 6 3 6 3 2 5 3 1 1 8 7 8 8 9 9 10 12 6
4 5 5 8 9 8 6 8 8 4 2 3 2 0 3 2 5 5 5 5 5 4 7 6 3 3 3 1 1 2 4 8 5 8 9 11 11 4
5 6 8 8 7 8 6 5 6 4 4 3 4 5 5 5 6 3 2 3 4 5 5 5 3 3 2 3 1 1 3 4 4 5 8 9 10 8
8 7 8 10 10 14 11 9 6 6 6 2 4 5 7 7 8 5 1 3 2 7 7 5 3 3 2 2 2 2 2 4 4 5 6 8 7 6
8 7 7 9 8 10 14 15 12 7 4 6 7 7 7 6 7 6 7 7 1 7 6 3 4 4 2 2 3 3 4 3 4 5 5 5 6 5
5 8 8 7 7 7 8 8 9 9 9 10 9 7 7 8 7 7 4 6 6 6 6 6 3 4 2 2 4 3 4 3 4 4 4 4 5 6
5 8 9 10 10 10 9 10 10 10 9 8 8 8 7 6 7 6 5 4 5 5 4 5 3 3 5 5 2 4 4 3 4 4 4 5 6 7
8 9 9 9 9 9 9 9 8 8 8 8 8 8 7 6 6 5 5 5 4 5 4 3 4 2 3 5 9 4 4 3 4 5 5 4 6 8
9 9 9 9 9 9 9 9 10 9 8 8 8 8 7 7 7 5 6 5 4 4 4 3 3 2 0 2 2 6 4 2 2 4 5 4 4 7
9 9 9 9 9 9 9 9 9 9 9 9 8 8 7 7 6 6 6 6 6 3 2 2 2 4 3 2 2 3 12 3 3 3 3 3 3 7
8 9 8 9 9 9 9 9 10 10 9 9 9 8 7 6 6 6 6 6 6 3 3 3 4 3 1 1 2 3 7 17 11 2 1 3 2 4
8 8 8 8 9 9 10 10 10 10 10 10 10 8 7 6 6 6 5 6 5 3 2 2 4 3 3 3 4 3 3 6 11 20 20 11 1 3
8 9 8 9 9 10 10 10 11 11 11 11 9 8 7 7 6 6 6 5 4 3 3 3 4 4 5 3 3 4 8 6 4 8 10 18 17 17
Wind_Direction
265 276 299 297 286 294 288 279 282 293 292 307 296 40 345 328 325 350 343 344 334 36 40 29 23 14 15 17 25 29 30 39 39 39 41 40 41 45
297 359 296 307 313 305 304 288 273 276 284 282 315 1 340 315 315 346 341 10 11 31 32 27 22 21 21 21 22 18 23 23 30 32 36 38 40 38
314 355 293 276 276 269 282 284 273 271 266 276 196 295 282 311 333 330 333 356 354 9 26 29 25 27 36 25 22 13 14 18 15 21 27 31 30 34
265 263 275 274 278 279 286 284 268 268 285 296 336 343 309 335 326 318 346 9 354 350 356 3 15 8 23 13 19 16 12 7 7 17 18 26 26 29
278 286 294 292 291 301 311 317 318 305 288 284 337 275 286 337 331 313 320 290 276 306 300 268 307 343 47 23 7 21 13 1 7 17 18 23 14 18
282 294 312 295 331 354 350 329 320 294 351 2 355 337 328 322 315 335 348 356 321 343 329 293 287 298 40 14 1 11 9 1 0 359 353 349 347 347
295 289 27 56 47 40 24 357 349 343 25 28 346 348 360 354 349 337 303 313 297 317 339 4 314 296 16 354 334 1 351 345 347 345 339 332 323 322
316 68 59 51 38 10 35 52 26 350 24 1 25 15 12 354 345 316 320 319 342 69 330 330 1 335 304 291 357 332 342 342 333 330 332 332 329 302
79 77 70 42 15 16 28 324 218 27 21 4 9 20 3 355 334 325 352 331 330 15 337 343 352 337 334 325 340 341 344 344 348 344 341 346 337 310
76 68 66 43 16 332 325 331 316 304 289 315 335 338 315 335 321 314 319 306 160 39 16 322 338 329 307 112 10 7 2 353 2 18 19 1 342 325
66 63 28 320 303 314 289 282 300 298 212 268 279 305 332 312 306 320 348 332 359 26 42 314 319 313 308 63 360 7 13 24 32 19 11 4 351 337
53 14 25 3 341 329 286 279 284 297 336 335 3 328 273 13 294 23 328 353 348 332 43 345 314 338 312 140 42 12 5 21 19 18 12 6 359 357
41 42 33 10 0 2 338 347 312 343 91 44 345 356 349 2 3 22 72 324 338 358 47 358 301 312 285 303 271 47 21 8 4 3 3 6 5 9
47 47 44 20 21 26 33 2 59 157 70 33 352 6 358 2 358 346 10 327 27 345 4 6 295 310 298 294 323 351 74 25 354 12 4 5 359 354
56 43 20 21 19 49 32 21 32 37 23 4 359 1 357 348 341 358 25 0 263 13 21 8 353 325 316 345 330 2 341 30 5 6 5 6 5 351
64 51 30 43 48 35 32 36 36 26 11 11 3 347 346 352 5 20 351 338 355 4 354 352 7 13 349 5 14 359 7 2 345 6 355 8 11 6
29 41 36 37 37 34 33 34 30 18 10 350 351 356 360 357 357 357 341 342 357 341 346 342 358 73 69 38 21 5 5 1 9 9 15 23 19 11
45 35 34 28 26 21 20 18 32 22 1 357 358 355 354 353 350 343 337 342 347 358 354 338 333 233 198 83 50 6 344 7 29 34 27 28 30 16
41 34 28 22 18 15 9 6 6 5 4 9 0 355 352 346 353 347 343 344 338 1 1 350 346 341 334 38 6 357 331 324 50 46 45 25 34 26
34 27 21 16 14 11 9 7 1 2 357 354 11 354 350 351 346 344 343 342 337 1 3 2 4 9 29 25 13 323 17 56 53 62 57 43 24 11
23 26 19 16 12 7 4 2 359 2 354 354 5 3 344 347 342 334 331 334 337 13 12 2 358 294 70 72 58 14 35 42 50 27 86 80 29 21
18 15 11 7 3 2 1 1 1 2 1 358 6 2 341 341 340 334 336 334 349 25 41 3 25 48 55 65 60 21 25 40 45 60 60 58 29 63
8 360 3 2 3 1 359 359 360 1 1 360 5 349 340 340 340 337 338 340 9 36 43 48 54 59 66 65 45 51 68 50 50 63 63 60 72 76